Regional Weather Roundup
Issued by NWS

Home | Current Version | Previous Version | Text Only | Print | Product List | Glossary Off
Versions: 1 2 3 4 5 6 7 8 9 10 11 12 13 14 15 16 17 18 19 20 21 22 23 24 25 26 27 28 29 30 31 32 33 34 35 36 37 38 39 40 41 42 43 44 45 46 47 48 49 50

492
ASUS45 KCYS 221010
RWRWY

WYOMING REGIONAL WEATHER ROUNDUP
NATIONAL WEATHER SERVICE CHEYENNE WY
400 AM MDT WED MAR 22 2017

NOTE:  "FAIR" INDICATES FEW OR NO CLOUDS BELOW 12,000 FEET
WITH NO SIGNIFICANT WEATHER AND/OR OBSTRUCTIONS TO VISIBILITY.

WYZ001-221100-
YELLOWSTONE NATIONAL PARK

CITY           SKY/WX    TMP DP  RH WIND       PRES   REMARKS
LK YELLOWSTONE   N/A     32  32 100 E5        29.97F WCI  27
W YELLOWSTONE  NOT AVBL

$$
WYZ002>013-054>058-071-098>099-221100-
NORTHERN WYOMING

CITY           SKY/WX    TMP DP  RH WIND       PRES   REMARKS
JACKSON        CLOUDY    37  37 100 SW6       29.96S WCI  33
CODY           FAIR      35  34  96 CALM      29.83F
GREYBULL       FAIR      36  35  96 SE3       29.81F FOG
WORLAND        FAIR      36  36 100 S7        29.81F WCI  30
SHERIDAN       FOG       35  34  96 VRB3      29.80F VSB 1/4
BUFFALO        FAIR      38  34  85 SE13      29.83F WCI  30
GILLETTE       FAIR      33  31  92 S29G35    29.87F WCI  19
HULETT         FAIR      43  32  65 W5        29.88F
NEWCASTLE      FAIR      37  28  70 SE22      30.00F WCI  27

$$
WYZ014>020-022>026-101>103-221100-
CENTRAL WYOMING

CITY           SKY/WX    TMP DP  RH WIND       PRES   REMARKS
BIG PINEY      MOCLDY    33  31  92 E6        29.98S WCI  28
PINEDALE       CLOUDY    32  32 100 CALM      30.00F
DUBOIS         FAIR      39  32  75 W14       29.91F WCI  31
LANDER         FAIR      40  35  83 VRB6      29.86S
RIVERTON       FAIR      36  33  89 N7        29.87S WCI  30
CASPER         FAIR      37  36  96 SE7       29.90F WCI  32
DOUGLAS        FAIR      36  28  73 SE23G35   29.95F WCI  24

$$
WYZ021-027>030-104>119-221100-
SOUTHERN WYOMING

CITY           SKY/WX    TMP DP  RH WIND       PRES   REMARKS
EVANSTON       FAIR      41  35  79 S3        30.00F
KEMMERER         N/A     37  34  87 SW8       30.00F WCI  31
FORT BRIDGER   FAIR      42  36  81 W10       30.02F
ROCK SPRINGS   FAIR      43  29  57 W8        30.00R
DIXON            N/A     55  24  30 S10       30.03S
RAWLINS        FAIR      50  23  34 SW14      29.97F
SARATOGA       FAIR      52  23  32 S12G26    30.02F
LARAMIE        FAIR      32  28  85 CALM      30.03F
CHEYENNE       FAIR      32  26  78 S10       30.08F WCI  24
TORRINGTON     FAIR      36  29  75 SE15      30.05F WCI  27
PINE BLUFFS    FAIR      34  27  75 S17G24    30.09F WCI  23

$$




USA.gov is the U.S. government's official web portal to all federal, state and local government web resources and services.